Location: Balsareny
(41.8670°N, 1.8830°E)
Time: 05:21:48
(UTC+02:00)

Tiangong - Pass Details

Date: 29 June 2021
Orbit: 373 x 386 km, 41.5° (Epoch: 28 July)

Event Time Altitude Azimuth Distance (km) Brightness Sun altitude
Exits shadow 03:43:41 37° 97° (E) 606 2.1 -20.3°
Drops below altitude 10° 03:45:42 10° 95° (E) 1,384 4.1 -20.1°
Sets 03:47:46 0° 95° (E) 2,238 5.2 -20.0°
